Location: Carnières
(50.1682°N, 3.3474°E)
Time: 19:30:45
(UTC+00:00)

Cosmos 1346 Rocket - Pass Details

Date: 23 May 2024
Orbit: 508 x 521 km, 81.2° (Epoch: 14 June)

Event Time Altitude Azimuth Distance (km) Brightness Sun altitude
Rises 00:38:39 0° 347° (NNW) 2,662 7.5 -18.1°
Reaches altitude 10° 00:40:48 10° 347° (NNW) 1,770 6.4 -18.1°
Maximum altitude 00:44:42 88° 263° (W) 530 2.6 -17.9°
Enters shadow 00:45:58 41° 171° (S) 764 3.1 -17.8°
